Kezdőlap
METAR-TAF:

METAR-TAF

Repülőterek :

Montevideo-Chippewa County Airport

Montevideo, Minnesota, Amerikai Egyesült Államok

földrajzi szélesség: 44-58N, földrajzi hosszúság: 095-43W, magasság: 315 m

Jelenlegi meteorológiai megfigyelések

A jelentés 25 perccel ezelõtt készült, 03:55 UTC
Észak-északnyugati szél 8 kt
Hőmérséklet 17°C
Páratartalom 48%
Légköri nyomás 1004 hPa
Látótávolság: 16.1 km

METAR: KMVE 140355Z AUTO 34008KT 10SM 17/06 A2965 RMK AO2 LTG DSNT NE

Idő: 23:20 (04:20 UTC)


TAF: hiányzik

Meteorológiai megfigyelések és előrejelzések több, mint 4000 repülőtéren (METAR és TAF jelentéseket).

A térképen piros és sárga pontok jelzik az elérhető meteorológiai állomásokat.

Mozgassa az egeret a pont fölött, hogy megjelenjen az állomás neve.

Azután kattintson az időjárási megfigyelések és előrejelzések megtekintéséhez.

A térkép megváltoztatása: kattintson a fekete keresztel jelölt zöld gombra ráközelítéshez, a vonallal jelölt zöld gombra távolításhoz, vagy a zöld nyilakra a szomszédos térképek eléréséhez.


METAR-TAF: